{"data":{"norad_id":61571,"epoch":"2026-09-22T23:15:59.558112Z","epoch_age_seconds":84002,"freshness":"FRESH","line1":"1 61571U 24186A   26265.96943933  .00000216  00000+0  34576-4 0  9995","line2":"2 61571  97.9132 272.8282 0001220  54.5377 305.5949 14.81019817103818","mean_motion":14.81019817,"eccentricity":0.000122,"inclination_deg":97.9132,"raan_deg":272.8282,"arg_perigee_deg":54.5377,"mean_anomaly_deg":305.5949,"bstar":3.4576e-5,"rev_number":10381,"period_min":97.230299248589,"perigee_km":625.252397661,"apogee_km":626.96143317636,"semimajor_km":7004.2439154187,"source":"CELESTRAK","updated_at":"2026-09-23T09:00:20.909135Z"}}